Find Starlink 2731

NORAD ID: 48651 Int'l Des: 2021-044 Owner: SPXS Country: US Constellation: starlink operational
LEOCIRCULAR

現在のビュー

3D地球を読み込み中...

About Starlink 2731

Starlink 2731 (NORAD 48651) is a starlink constellation satellite (v1.0) launched May 26, 2021 by SPXS of US. It operates in LEO, CIRCULAR orbit with a mass of 260.00 kg.

Starlink 2731について

説明を読み込み中...

次回通過

Passes for default location (London). Set your location on the main map for personalized predictions.

高度履歴

Loading altitude history...

軌道要素

1 48651U 21044P 26170.91750129 .00008118 00000-0 27296-3 0 9992
2 48651 53.1604 358.3622 0000866 75.3185 284.7912 15.31711786279486
Epoch: Jun 19, 2026 • Age: 13 hours

現在のステータス

高度 470.5 km
速度 7.63 km/s
衛星直下点 12.42°N, 62.53°W
打ち上げ日 May 26, 2021
運用期間 5 years
タイプ internet

技術仕様

分類 Payload
質量 260.00 kg
乾燥質量 248.00 kg
総質量 260.00 kg
長さ 0.20 m
直径 2.80 m
スパン 9.00 m
形状 Box + pan
製造者 SPXS
バスタイプ Starlink
フェーズステータス In Orbit
所有者/国 SPXS/US

Most Searched